星链-6317 (STARLINK-6317 )

导读 | 星芒AI

STARLINK-6317 是 SpaceX 星链(Starlink)卫星互联网项目中的一颗低轨通信卫星。它属于星链计划的第63批发射任务,旨在为全球用户提供高速、低延迟的互联网服务。该卫星运行在约 550 公里的近地轨道,采用先进通信技术,支持宽带数据传输。作为星链星座的一部分,STARLINK-6317 有助于扩大覆盖范围,提升网络性能,特别是在偏远和网络基础设施薄弱的地区。

基本信息
目录编号:
56526
目录名称:
STARLINK-6317
国际标识:
2023-065Z
轨道中心:
EARTH
卫星名称:
星链-6317
卫星全名:
星链-6317 (STARLINK-6317 )
卫星状态:
在轨 (已飞行952 天)
发射日期:
2023-05-14 UTC
国别 :
美国 (US)
星等 :
--
轨道信息
数据来源 国际轨道数据
星历时间: 2025-12-21T19:28:00+0800
8小时前
查看轨道信息
半长轴: 6937.122km
偏心率: 0.0001359
轨道倾角: 43.006°
近地点辐角 263.961°
升交点赤经 274.979°
平近点角 96.108°
近地点: 558.042km
远地点: 559.928km
周期: 95.836分钟
每日圈数: 15.02567
详细信息
固有亮度:
5
最大亮度:
2.5
卫星平台:
Starlink v1.5
覆盖范围:
全球
运营商:
太空探索技术公司
运营商所在国:
美国
制造商(研发单位):
太空探索技术公司
制造商所在国:
美国
使用方式:
暂无
卫星简介
星链(Starlink)计划是由太空探索技术公司(SpaceX)提出的一个巨型低轨卫星互联网星座项目,计划在2019年至2024年间在太空搭建由约1.2万颗卫星组成的“星链”网络,其中1584颗将部署在地球上空550千米处的近地轨道,并从2020年开始工作。该卫星仍在工作。
2D轨道图
3D轨道图
轨道高度分析图
轨道倾角分析图
轨道综合分析图
查看轨道综合分析图